Weather History for PAIL - October, 2012

Change the Weather History Date:

Tuesday, October 30, 2012

  Actual Average Record
Temperature  
Mean Temperature 22 °F -  
Max Temperature 28 °F 30 °F 50 °F (2003)
Min Temperature 15 °F 19 °F -4 °F (1985)
Degree Days  
Heating Degree Days 44    
Moisture  
Dew Point 9 °F    
Average Humidity 57    
Maximum Humidity 68    
Minimum Humidity 36    
Precipitation  
Precipitation 0.00 in - - ()
Sea Level Pressure  
Sea Level Pressure 29.93 in    
Wind  
Wind Speed 20 mph (NW)    
Max Wind Speed 29 mph    
Max Gust Speed 40 mph    
Visibility 10 miles    
Events      
Averages and records for this station are not official NWS values.
T = Trace of Precipitation, MM = Missing Value Source: NWS Daily Summary

Daily Weather History Graph

Daily Weather History Graph

Search for Another Location

Airport or City:

Trip Planner

Search our weather history database for the weather conditions in past years. The results will help you decide how hot, cold, wet, or windy it might be!

Date:

Astronomy

Oct. 30, 2012 Rise Set
Actual Time 9:37 AM AKDT 6:27 PM AKDT
Civil Twilight 8:53 AM AKDT 7:12 PM AKDT
Nautical Twilight 8:04 AM AKDT 8:01 PM AKDT
Astronomical Twilight 7:16 AM AKDT 8:48 PM AKDT
Moon 6:38 PM AKDT (10/30) 10:57 AM AKDT (10/30)
Length of Visible Light 10h 19m
Length of Day
8h 50m
Full, 99% of the Moon is Illuminated
Oct 30
Full
Nov 6
Last Quarter
Nov 13
New
Nov 20
First Quarter
Nov 28
Full

Hourly Weather History & Observations

Time (AKDT) Temp. Windchill Dew Point Humidity Pressure Visibility Wind Dir Wind Speed Gust Speed Precip Events Conditions
12:53 AM 24.1 °F 8.3 °F 12.0 °F 60% 30.03 in 10.0 mi NW 24.2 mph 35.7 mph N/A   Clear
1:53 AM 23.0 °F 7.6 °F 12.9 °F 65% 30.03 in 10.0 mi NW 21.9 mph 31.1 mph N/A   Clear
3:53 AM 21.9 °F 7.8 °F 10.9 °F 63% 30.02 in 10.0 mi NW 17.3 mph 25.3 mph N/A   Clear
4:53 AM 19.9 °F 3.2 °F 10.0 °F 65% 30.01 in 10.0 mi NW 23.0 mph 32.2 mph N/A   Clear
5:53 AM 19.0 °F 2.4 °F 10.0 °F 68% 30.01 in 10.0 mi NW 21.9 mph 32.2 mph N/A   Clear
6:53 AM 19.0 °F 2.4 °F 9.0 °F 65% 30.01 in 10.0 mi NNW 21.9 mph 26.5 mph N/A   Clear
7:53 AM 19.0 °F 1.3 °F 9.0 °F 65% 29.98 in 10.0 mi NNW 25.3 mph 39.1 mph N/A   Clear
8:53 AM 18.0 °F -0.2 °F 8.1 °F 65% 29.96 in 10.0 mi NW 25.3 mph 39.1 mph N/A   Clear
9:53 AM 18.0 °F -1.1 °F 8.1 °F 65% 29.96 in 10.0 mi NW 28.8 mph 40.3 mph N/A   Clear
10:53 AM 19.0 °F 1.6 °F 8.1 °F 62% 29.93 in 10.0 mi NW 24.2 mph 35.7 mph N/A   Partly Cloudy
11:53 AM 21.0 °F 5.4 °F 8.1 °F 57% 29.95 in 10.0 mi NNW 20.7 mph 28.8 mph N/A   Partly Cloudy
12:53 PM 21.9 °F 10.4 °F 7.0 °F 53% 29.95 in 10.0 mi NNW 11.5 mph 25.3 mph N/A   Partly Cloudy
1:53 PM 24.1 °F 11.5 °F 8.1 °F 51% 29.94 in 10.0 mi North 15.0 mph 25.3 mph N/A   Clear
2:53 PM 24.1 °F 14.4 °F 8.1 °F 51% 29.93 in 10.0 mi NW 9.2 mph 19.6 mph N/A   Clear
3:53 PM 24.1 °F 10.6 °F 8.1 °F 51% 29.91 in 10.0 mi NNW 17.3 mph 35.7 mph N/A   Clear
4:53 PM 23.0 °F 10.1 °F 8.1 °F 53% 29.91 in 10.0 mi NNW 15.0 mph 26.5 mph N/A   Clear
5:53 PM 21.9 °F 6.9 °F 8.1 °F 55% 29.88 in 10.0 mi NW 19.6 mph 33.4 mph N/A   Clear
6:53 PM 21.9 °F 5.8 °F 8.1 °F 55% 29.86 in 10.0 mi NNW 23.0 mph 35.7 mph N/A   Clear
7:53 PM 21.0 °F 6.2 °F 8.1 °F 57% 29.85 in 10.0 mi NNW 18.4 mph 31.1 mph N/A   Clear
8:53 PM 21.0 °F 8.1 °F 8.1 °F 57% 29.84 in 10.0 mi NNW 13.8 mph 18.4 mph N/A   Clear
9:53 PM 19.9 °F 9.3 °F 8.1 °F 60% 29.81 in 10.0 mi NW 9.2 mph 31.1 mph N/A   Clear
10:53 PM 19.9 °F 10.1 °F 8.1 °F 60% 29.80 in 10.0 mi NW 8.1 mph 20.7 mph N/A   Clear
11:53 PM 19.0 °F 5.6 °F 8.1 °F 62% 29.78 in 10.0 mi NW 13.8 mph - N/A   Clear